Terminal Aerodrome Forecast
Issued by NWS

Home | Current Version | Previous Version | Text Only | Print | Product List | Glossary On
Versions: 1 2 3 4 5 6 7 8 9 10 11 12 13 14 15 16 17 18 19 20 21 22 23
000
FTUS41 KBTV 041607 AAB
TAFMPV
TAF AMD
KMPV 041607Z 0416/0512 21006KT P6SM VCTS SCT040CB BKN110
      TEMPO 0417/0418 VRB20G45KT 2SM TSRA BKN030CB
     FM041800 23007KT 5SM +SHRA BKN060
     FM050000 25006KT P6SM VCSH BKN060
     FM050300 27010KT P6SM BKN070 OVC100=

USA.gov is the U.S. government's official web portal to all federal, state and local government web resources and services.